Tracking 18852 objects as of 24-Nov-2017
HD Live streaming from Space Station
objects crossing your sky now

COSMOS 766

Track COSMOS 766 now!
10-day predictions
COSMOS 766 is classified as:


NORAD ID: 8290
Int'l Code: 1975-086F
Perigee: 1,424.2 km
Apogee: 1,492.0 km
Inclination: 74.0 °
Period: 114.9 minutes
Semi major axis: 7829 km
RCS: 0.694 m2 (medium)
Launch date: September 17, 1975
Source: Commonwealth of Independent States (former USSR) (CIS)
Launch site: PLESETSK MISSILE AND SPACE COMPLEX (PKMTR)
aabbcc
Your satellite tracking list
Your tracking list is empty




NASA's NSSDC Master Catalog

Two Line Element Set (TLE):
1  8290U 75086F   17327.57815804 -.00000014 +00000-0 +13762-4 0  9992
2  8290 074.0112 009.9467 0043278 256.8785 212.6902 12.53249162929957
Source of the keplerian elements: AFSPC